Date,TemperatureHighF,TemperatureAvgF,TemperatureLowF,DewpointHighF,DewpointAvgF,DewpointLowF,HumidityHigh,HumidityAvg,HumidityLow,PressureMaxIn,PressureMinIn,WindSpeedMaxMPH,WindSpeedAvgMPH,GustSpeedMaxMPH,PrecipitationSumIn
2012-5-1,73,71,68,40,39,36,34,32,27,29.62,29.59,19,7,19,0.00
2012-5-2,88,73,57,42,38,32,54,30,18,29.76,29.62,21,6,21,0.00
2012-5-3,85,72,62,39,35,29,36,26,19,29.85,29.74,31,10,31,0.00
2012-5-4,85,71,60,39,35,32,38,28,19,29.91,29.79,27,9,27,0.00
2012-5-5,83,70,59,58,30,22,98,23,14,30.06,29.85,20,6,20,3.29
2012-5-6,85,72,59,33,27,21,33,19,13,30.03,29.94,15,5,21,0.00
2012-5-7,86,74,61,30,25,19,25,17,13,30.03,29.91,15,6,22,0.00
2012-5-8,89,73,56,32,24,15,20,16,13,30.00,29.88,19,5,26,0.00
2012-5-9,96,81,61,37,30,24,25,16,11,29.97,29.80,10,4,15,0.00
2012-5-10,95,82,66,39,34,24,25,18,11,29.85,29.74,18,7,29,0.00
2012-5-11,94,81,68,39,33,28,23,18,11,29.94,29.77,11,6,17,0.00
2012-5-12,97,82,58,38,34,28,39,20,11,30.03,29.94,12,4,15,0.00
2012-5-13,100,83,60,40,35,29,38,20,10,30.09,29.91,9,4,23,0.00
2012-5-14,93,80,66,41,35,27,38,21,11,30.03,29.85,15,6,23,0.00
2012-5-15,94,78,64,40,32,25,32,20,11,29.91,29.83,14,6,24,0.00
2012-5-16,100,83,64,43,38,36,37,22,13,29.94,29.80,13,5,19,0.00
2012-5-17,98,84,72,42,36,31,28,19,10,29.83,29.74,18,8,30,0.00
2012-5-18,89,76,64,39,33,27,33,22,13,29.85,29.71,16,7,24,0.00
2012-5-19,93,78,59,41,37,33,47,25,14,29.97,29.85,11,4,15,0.00
2012-5-20,98,83,67,43,37,33,30,20,12,30.00,29.88,10,4,13,0.00
2012-5-21,100,86,71,43,38,35,28,19,12,29.97,29.88,14,7,23,0.00
2012-5-22,102,86,75,46,40,34,30,20,12,29.94,29.71,23,8,31,0.00
2012-5-23,93,80,70,42,38,32,28,22,17,29.77,29.59,20,8,32,0.00
2012-5-24,88,75,63,40,34,29,30,23,18,29.77,29.50,23,8,33,0.00
2012-5-25,70,63,52,32,27,22,39,26,20,29.68,29.53,22,12,33,0.00
2012-5-26,72,61,50,33,30,26,42,32,23,29.94,29.68,19,8,29,0.00
2012-5-27,82,68,53,37,34,29,46,30,19,30.06,29.91,9,4,14,0.00
2012-5-28,88,74,58,38,34,28,40,24,13,30.00,29.88,12,5,15,0.00
2012-5-29,93,78,63,42,35,-100,33,22,14,29.97,29.88,15,7,24,0.00
2012-5-30,97,81,60,42,37,32,37,22,11,30.00,29.91,10,4,17,0.00
2012-5-31,104,89,71,43,39,33,33,19,9,30.00,29.83,11,4,17,0.00
2012-6-1,105,91,77,44,38,33,22,16,9,29.88,29.77,14,5,35,0.00
2012-6-2,102,89,77,47,40,33,31,18,12,29.80,29.74,13,5,19,0.00
2012-6-3,102,86,69,48,43,36,46,24,12,29.88,29.80,13,4,20,0.00
2012-6-4,94,81,66,47,42,37,45,27,17,29.85,29.80,18,9,26,0.00
2012-6-5,79,68,59,40,32,27,41,26,18,29.88,29.80,17,10,29,0.00
2012-6-6,86,72,55,36,31,27,36,23,13,29.94,29.83,11,4,17,0.00
2012-6-7,96,80,64,40,34,31,33,20,11,29.94,29.83,12,5,20,0.00
2012-6-8,95,80,69,44,41,34,35,25,17,29.83,29.71,19,9,28,0.00
2012-6-9,95,81,69,43,37,32,33,22,14,29.83,29.65,13,6,17,0.00
2012-6-10,91,78,64,32,27,19,22,15,12,29.97,29.83,11,4,17,0.00
2012-6-11,99,81,57,37,30,19,29,16,10,30.00,29.91,9,3,14,0.00
2012-6-12,101,87,72,40,33,28,22,15,10,29.97,29.83,13,6,24,0.00
2012-6-13,101,86,72,44,36,30,29,17,10,29.85,29.71,12,5,20,0.00
2012-6-14,99,85,70,49,43,38,37,24,13,29.83,29.74,11,5,17,0.00
2012-6-15,100,86,73,49,42,32,38,23,13,29.83,29.77,8,4,14,0.00
2012-6-16,103,88,65,43,38,32,42,19,9,29.94,29.83,11,3,19,0.00
2012-6-17,103,88,63,38,33,26,24,15,9,30.00,29.85,14,4,20,0.00
2012-6-18,100,90,79,42,37,32,21,16,10,29.88,29.71,20,11,30,0.00
2012-6-19,101,90,77,40,36,31,20,15,10,29.80,29.68,18,7,27,0.00
2012-6-20,106,89,67,42,37,33,34,18,9,29.85,29.77,9,4,13,0.00
2012-6-21,100,87,72,45,40,36,31,20,12,29.85,29.77,17,7,24,0.00
2012-6-22,95,82,72,40,34,28,24,18,11,29.83,29.71,19,10,30,0.00
2012-6-23,90,79,69,45,38,31,41,23,18,29.85,29.71,16,10,29,0.00
2012-6-24,92,79,66,45,37,28,48,25,12,29.94,29.85,15,8,23,0.00
2012-6-25,92,78,65,40,36,30,37,24,12,29.97,29.85,14,8,26,0.00
2012-6-26,94,79,64,41,38,35,42,24,14,29.91,29.77,13,7,19,0.00
2012-6-27,97,81,64,41,37,31,39,23,11,29.91,29.83,13,6,19,0.00
2012-6-28,100,84,68,42,36,-100,35,20,10,30.00,29.91,13,6,22,0.00
2012-6-29,99,85,72,42,36,28,25,18,10,30.00,29.88,15,8,22,0.00
2012-6-30,99,83,66,45,41,34,41,24,14,29.94,29.80,16,6,24,0.00
2012-7-1,100,84,66,51,44,40,43,26,15,29.88,29.74,12,5,17,0.00
2012-7-2,98,84,71,53,47,38,52,30,13,29.91,29.80,12,5,15,0.00
2012-7-3,99,86,73,50,43,-100,41,24,13,29.88,29.80,11,6,16,0.00
2012-7-4,94,83,72,56,47,43,38,29,19,29.94,29.83,12,6,19,0.00
2012-7-5,97,86,73,49,44,38,35,24,13,29.97,29.85,10,6,15,0.00
2012-7-6,100,88,72,47,42,36,36,22,12,30.03,29.91,10,4,15,0.00
2012-7-7,103,89,72,47,39,31,33,19,10,30.03,29.91,9,4,14,0.00
2012-7-8,104,90,74,42,36,31,27,16,9,30.03,29.91,10,4,17,0.00
2012-7-9,107,92,73,43,38,-100,22,15,9,30.03,29.88,10,1,16,0.00
2012-7-10,107,89,79,44,40,38,28,19,11,29.97,29.83,12,4,17,0.00
2012-7-11,112,99,83,48,41,37,20,14,10,29.91,29.80,12,5,28,0.00
2012-7-12,106,94,87,52,43,35,29,18,14,29.94,29.83,14,6,23,0.00
2012-7-13,93,86,80,62,55,39,46,35,22,30.03,29.91,10,4,15,0.00
2012-7-14,100,86,70,56,42,32,51,23,11,30.00,29.83,13,5,20,0.00
2012-7-15,98,85,68,42,35,28,27,18,11,29.97,29.80,13,6,21,0.00
2012-7-16,94,81,68,33,30,22,21,16,11,29.91,29.80,17,8,26,0.00
2012-7-17,91,78,67,44,36,27,36,23,15,29.94,29.85,18,10,28,0.00
2012-7-18,91,79,65,44,38,30,45,24,12,30.00,29.91,13,6,22,0.00
2012-7-19,99,86,71,45,40,34,31,20,16,30.03,29.91,12,4,20,0.00
2012-7-20,102,89,72,46,44,39,36,22,12,30.06,29.94,11,4,17,0.00
2012-7-21,104,92,72,48,45,41,36,20,14,30.03,29.88,11,4,17,0.00
2012-7-22,106,94,80,51,48,44,33,21,14,30.00,29.85,12,5,17,0.00
2012-7-23,102,92,83,49,45,39,27,20,15,30.00,29.88,14,8,20,0.00
2012-7-24,100,88,77,40,33,26,20,14,10,30.00,29.85,15,8,26,0.00
2012-7-25,101,86,72,36,31,27,21,15,10,30.00,29.85,13,6,17,0.00
2012-7-26,99,85,67,37,33,28,23,16,10,30.00,29.88,14,6,24,0.00
2012-7-27,100,85,71,41,36,32,28,18,10,30.00,29.88,14,6,22,0.00
2012-7-28,102,85,68,41,35,31,29,18,10,30.03,29.91,11,5,15,0.00
2012-7-29,103,86,68,40,34,28,27,16,9,30.06,29.91,9,4,14,0.00
2012-7-30,106,90,70,55,37,-100,31,17,9,30.00,29.88,13,-6,22,0.00
2012-7-31,102,80,70,60,32,-100,64,22,17,30.15,29.97,18,-53,25,0.00
2012-8-1,101,79,71,62,40,-100,72,34,17,30.15,29.97,11,-34,19,0.00
2012-8-2,106,74,73,49,14,-100,33,15,13,30.03,29.85,10,-179,15,0.00
2012-8-3,107,93,78,55,40,29,42,17,12,29.91,29.80,15,4,22,0.00
2012-8-4,102,88,71,62,50,39,73,30,16,29.97,29.85,9,3,16,0.00
2012-8-5,105,92,75,47,43,38,32,19,9,30.03,29.94,9,4,14,0.00
2012-8-6,107,92,78,48,43,39,32,19,11,30.09,29.97,10,4,15,0.00
2012-8-7,108,92,76,48,43,39,31,19,13,30.03,29.88,10,4,15,0.00
2012-8-8,109,98,60,58,45,41,98,17,11,30.00,29.88,10,4,18,0.00
2012-8-9,110,96,78,49,45,40,33,18,13,30.00,29.85,15,5,24,0.00
2012-8-10,112,96,80,49,45,41,32,18,10,29.94,29.80,14,4,20,0.00
2012-8-11,111,96,80,49,45,41,30,18,10,29.91,29.83,14,5,22,0.09
2012-8-12,109,94,84,50,47,44,30,21,14,29.97,29.85,18,4,24,0.00
2012-8-13,107,89,77,68,54,45,67,34,14,29.97,29.85,19,3,39,0.33
2012-8-14,106,90,73,64,52,44,75,32,14,29.94,29.80,16,3,24,0.00
2012-8-15,106,92,74,53,46,35,48,22,9,29.91,29.80,14,5,25,0.00
2012-8-16,108,93,76,47,43,38,36,19,11,29.97,29.85,9,4,14,0.00
2012-8-17,107,94,82,50,45,39,30,19,14,30.00,29.88,12,4,17,0.00
2012-8-18,105,93,81,53,45,40,29,20,15,30.00,29.83,15,4,22,0.00
2012-8-19,105,92,79,54,47,41,38,22,15,29.94,29.80,15,5,26,0.00
2012-8-20,105,92,79,48,44,40,30,20,15,29.97,29.83,11,5,15,0.00
2012-8-21,103,91,80,46,40,35,21,17,14,29.91,29.80,13,6,20,0.00
2012-8-22,95,83,72,64,47,36,75,32,18,29.97,29.85,18,5,25,0.04
2012-8-23,99,83,66,64,52,39,92,42,17,30.00,29.85,7,2,11,0.00
2012-8-24,102,89,74,47,42,37,31,20,15,29.94,29.83,10,4,15,0.00
2012-8-25,101,85,75,46,42,39,31,22,15,29.91,29.77,11,5,18,0.00
2012-8-26,97,84,72,45,37,28,32,20,11,29.97,29.83,12,6,19,0.00
2012-8-27,101,84,62,38,33,28,35,17,10,30.03,29.91,9,3,12,0.00
2012-8-28,104,88,64,44,37,27,34,18,12,30.03,29.88,11,4,17,0.00
2012-8-29,106,92,81,47,42,39,24,18,14,29.94,29.83,14,4,22,0.00
2012-8-30,102,88,75,57,45,36,38,24,15,29.91,29.80,17,6,27,0.00
2012-8-31,97,83,74,51,44,35,39,27,13,29.94,29.83,14,6,23,0.00
2012-9-1,96,85,69,39,33,29,23,16,11,30.00,29.88,10,6,15,0.00
2012-9-2,98,81,59,39,34,28,35,19,11,30.03,29.88,9,4,14,0.00
2012-9-3,101,84,62,40,35,32,40,19,10,30.03,27.61,11,4,17,0.00
2012-9-4,84,81,78,38,36,31,20,19,18,30.06,30.03,8,4,10,0.00
2012-9-5,94,86,77,52,46,34,36,26,14,30.06,29.97,14,6,22,0.00
2012-9-6,99,86,77,50,47,44,35,27,17,30.00,29.94,13,7,20,0.00
2012-9-7,101,88,74,51,47,43,42,26,16,30.09,29.97,9,4,13,0.00
2012-9-8,105,90,76,51,47,44,38,25,15,30.09,29.94,11,3,15,0.00
2012-9-9,104,90,75,52,48,44,41,25,14,30.03,29.88,12,4,18,0.00
2012-9-10,100,87,75,57,50,45,39,29,17,30.00,29.85,15,6,24,0.00
2012-9-11,97,83,72,56,49,37,54,33,18,30.03,29.88,16,5,23,0.00
2012-9-12,96,81,67,58,48,34,67,36,17,30.12,30.00,8,2,15,0.00
2012-9-13,98,81,63,42,34,24,45,21,11,30.21,30.09,10,3,15,0.00
2012-9-14,100,81,61,40,33,24,31,18,11,30.21,30.06,9,2,13,0.00
2012-9-15,100,82,62,41,34,27,34,19,10,30.18,30.03,12,2,15,0.00
2012-9-16,98,82,64,42,36,29,37,20,11,30.12,29.97,10,3,14,0.00
2012-9-17,98,85,73,40,35,28,22,17,11,30.09,29.97,8,4,14,0.00
2012-9-18,93,76,62,39,33,30,34,21,14,30.12,30.00,6,2,9,0.00
2012-9-19,100,84,65,41,36,31,33,19,13,30.12,30.00,10,3,15,0.00
2012-9-20,100,85,64,41,37,32,39,19,12,30.09,29.97,8,2,11,0.00
2012-9-21,77,76,73,36,34,33,24,22,22,30.00,30.00,5,2,8,0.00
2012-9-22,97,84,68,43,38,35,34,20,13,30.06,29.94,12,4,17,0.00
2012-9-23,81,79,75,38,37,36,26,22,20,30.00,30.00,7,3,10,0.00
2012-10-2,98,86,81,34,31,28,17,14,11,29.94,29.88,9,3,12,0.00
2012-10-3,97,84,74,39,35,28,22,17,11,30.00,29.91,17,8,28,0.00
2012-10-4,95,78,60,42,35,-100,39,22,14,30.09,29.97,11,4,17,0.00
2012-10-5,92,76,58,41,35,29,41,23,15,30.09,29.97,12,4,17,0.00
2012-10-6,91,74,56,40,34,-100,46,25,15,30.03,29.88,10,4,15,0.00
2012-10-7,89,73,55,40,36,30,43,27,16,30.00,29.88,8,3,13,0.00
2012-10-8,87,73,60,39,33,22,45,25,13,30.00,29.88,12,6,18,0.00
2012-10-9,81,70,61,42,35,26,43,28,20,30.00,29.91,13,5,17,0.00
2012-10-10,78,66,56,42,36,-100,57,35,20,30.03,29.88,11,4,16,0.00
2012-10-11,74,62,53,43,37,31,62,40,25,29.97,29.85,16,6,23,0.00
2012-10-12,72,61,52,47,42,38,80,52,32,30.15,29.97,10,-56,13,0.00
2012-10-13,81,64,48,43,40,37,75,45,24,30.24,30.15,6,2,9,0.00
2012-10-14,87,68,50,41,37,32,65,36,18,30.24,30.09,8,1,12,0.00
2012-10-15,89,68,50,40,35,31,51,31,18,30.12,29.97,6,1,9,0.00
2012-10-16,94,73,52,43,37,32,55,29,14,30.03,29.85,6,2,9,0.00
2012-10-17,91,74,58,40,36,29,44,26,15,30.06,29.91,7,2,10,0.00
2012-10-18,91,72,54,37,31,23,48,24,12,30.15,30.03,7,2,11,0.00
2012-10-19,92,72,51,45,32,-100,39,25,12,30.09,29.91,8,2,12,0.00
2012-10-20,88,73,55,45,42,38,60,34,18,29.91,29.71,14,6,25,0.00
2012-10-21,82,71,64,46,37,-100,48,30,18,29.85,29.77,17,8,26,0.00
2012-10-22,75,64,57,42,34,20,56,34,18,29.94,29.80,17,10,28,0.00
2012-10-23,69,60,53,41,29,21,54,32,22,29.91,29.83,18,11,28,0.00
2012-10-24,72,60,51,31,28,25,37,30,21,30.09,29.88,16,8,24,0.00
2012-10-25,72,56,40,31,26,20,54,33,21,30.18,30.09,7,2,9,0.00
2012-10-26,72,56,44,30,24,16,46,29,22,30.27,30.12,10,2,15,0.00
2012-10-27,79,58,40,32,23,13,42,27,17,30.12,30.00,7,1,10,0.00
2012-10-28,83,63,44,36,26,18,45,26,16,30.09,30.00,6,2,8,0.00
2012-10-29,85,64,46,33,26,19,39,25,14,30.15,30.06,6,1,9,0.00
2012-10-30,85,63,44,33,26,19,44,26,13,30.15,30.03,6,1,9,0.00
2012-10-31,83,63,41,32,24,17,45,24,14,30.09,29.97,11,3,17,0.00
2012-11-1,80,68,58,34,28,23,35,23,15,30.00,29.91,13,6,19,0.00
2012-11-2,80,65,48,37,32,23,63,30,17,30.06,29.97,8,2,11,0.00
2012-11-3,82,61,43,34,27,20,50,29,15,30.18,30.06,5,1,10,0.00
2012-11-4,83,63,46,33,25,20,38,25,14,30.27,30.18,8,2,12,0.00
2012-11-5,86,67,51,35,26,19,34,22,13,30.27,30.15,8,2,11,0.00
2012-11-6,87,66,47,37,29,24,47,26,16,30.21,30.09,6,2,10,0.00
2012-11-7,85,68,48,37,30,26,45,26,16,30.09,29.91,13,4,20,0.00
2012-11-8,74,64,54,38,34,28,49,34,22,29.91,29.77,16,10,28,0.00
2012-11-9,56,50,40,34,23,11,49,36,27,29.88,29.77,18,10,28,0.00
2012-11-10,56,46,37,23,17,10,40,31,25,30.15,29.85,14,7,22,0.00
2012-11-11,57,42,30,22,15,8,44,33,25,30.42,30.15,7,2,11,0.00
2012-11-12,62,42,26,21,12,6,44,30,19,30.39,30.24,6,1,10,0.00
2012-11-13,67,46,28,21,13,5,38,26,17,30.30,30.15,6,1,8,0.00
2012-11-14,67,48,30,21,14,5,34,26,17,30.21,30.12,5,1,7,0.00
2012-11-15,68,54,43,33,20,13,46,26,17,30.18,30.09,5,1,6,0.00
2012-11-16,59,52,48,33,29,26,48,41,36,30.12,30.06,7,1,10,0.00
2012-11-17,57,56,51,47,47,44,79,71,69,30.06,27.70,11,8,15,0.00
2012-11-18,69,60,52,46,38,34,71,47,28,30.12,27.67,16,9,26,0.00
2012-11-19,68,55,43,42,36,30,75,51,30,30.27,30.12,8,2,12,0.00
2012-11-20,74,55,36,38,33,30,78,46,26,30.24,30.06,8,3,14,0.00
2012-11-21,73,58,44,34,31,27,61,37,23,30.09,30.00,8,3,11,0.00
2012-11-22,72,55,40,36,30,24,73,43,23,30.27,30.09,7,1,10,0.00
2012-11-23,76,55,40,32,25,-100,53,33,19,30.30,30.21,6,1,9,0.00
2012-11-24,75,54,38,31,22,16,46,30,18,30.24,30.03,6,1,8,0.00
2012-11-25,74,52,36,30,21,16,48,31,18,30.06,29.91,6,1,9,0.00
2012-11-26,73,52,36,29,20,15,43,30,19,30.18,30.00,7,1,10,0.00
2012-11-27,68,52,36,28,21,15,45,31,22,30.21,30.09,5,1,7,0.00
2012-11-28,70,55,36,46,31,17,67,42,23,30.15,30.03,19,6,28,0.00
2012-11-29,69,60,56,48,44,36,74,57,33,30.15,30.06,16,9,23,0.00
2012-11-30,68,61,56,51,43,38,68,53,34,30.09,30.00,19,10,30,0.00
2012-12-1,69,62,57,49,42,35,74,49,33,30.09,30.03,16,10,24,0.00
2012-12-2,72,62,56,48,42,36,69,50,29,30.03,29.91,17,11,27,0.00
2012-12-3,72,59,47,50,40,36,74,50,31,30.24,30.03,12,4,16,0.00
2012-12-4,67,54,41,43,38,35,93,59,36,30.30,30.21,5,1,7,0.00
2012-12-5,67,52,39,38,35,31,83,55,33,30.21,30.03,6,2,8,0.00
2012-12-6,74,56,39,41,36,31,75,51,28,30.06,29.94,8,3,12,0.00
2012-12-7,72,56,42,41,31,23,71,42,22,30.09,30.00,7,2,10,0.00
2012-12-8,70,53,37,29,24,18,58,35,22,30.06,29.94,4,1,7,0.00
2012-12-9,70,50,35,29,21,16,50,33,22,30.24,30.00,8,2,12,0.00
2012-12-10,68,48,34,28,21,15,49,35,23,30.27,30.12,5,1,6,0.00
2012-12-11,67,50,31,30,22,15,52,35,23,30.15,29.85,13,3,19,0.00
2012-12-12,61,54,49,39,34,26,66,47,26,29.85,29.80,17,11,30,0.00
2012-12-13,50,45,42,42,40,37,93,80,65,29.83,29.77,9,3,14,0.00
2012-12-14,52,44,39,40,25,19,93,49,34,29.91,29.74,13,7,24,0.00
2012-12-15,54,43,29,26,21,17,63,42,29,30.03,29.88,10,4,15,0.00
2012-12-16,54,41,28,29,23,19,68,49,36,30.12,30.00,6,2,8,0.00
2012-12-17,69,47,30,40,30,21,80,53,24,30.09,29.88,14,5,20,0.00
2012-12-18,55,48,36,41,26,8,72,44,29,30.00,29.77,21,10,30,0.00
2012-12-19,50,37,24,15,8,2,35,29,21,30.36,30.00,10,3,15,0.00
2012-12-20,36,24,17,8,2,-2,42,34,30,30.36,30.21,4,0,5,0.00
2012-12-21,51,32,18,17,7,-1,43,33,24,30.21,30.09,4,1,6,0.00
2012-12-22,59,41,22,38,20,3,71,43,24,30.12,30.00,11,3,17,0.00
2012-12-23,62,53,45,40,33,28,69,48,29,30.06,29.97,21,10,29,0.00
2012-12-24,63,53,42,46,30,17,87,44,24,30.18,29.91,15,6,24,0.04
2012-12-25,53,42,30,21,15,11,54,34,24,30.18,29.91,6,2,9,0.00
2012-12-26,56,46,35,34,24,12,82,45,29,29.94,29.83,16,6,27,0.00
2012-12-27,55,42,30,25,20,14,72,42,26,30.12,29.91,10,3,14,0.00
2012-12-28,52,39,27,20,16,13,53,39,27,30.24,30.09,6,2,9,0.00
2012-12-29,52,39,26,32,20,12,67,47,30,30.09,29.97,9,2,13,0.00
2012-12-30,50,39,31,26,22,14,72,50,37,30.09,29.94,14,4,21,0.00
2012-12-31,53,39,27,19,13,9,44,34,26,30.24,30.06,12,2,17,0.00
2013-1-1,50,37,27,18,12,6,44,34,27,30.30,30.21,8,2,13,0.00